EW6513 Weather Reports


time (UTC)temp
C
wind
direction
speed
KPH
gust
KPH
rain 1hr
cm
rain 24hr
cm
rain mn
cm
humidity
%
barometer
mb
20260504004934 8 286 1.6 6.4 0.00 0.00 0.00 49 1010.1
20260504004428 8 286 1.6 6.4 0.00 0.00 0.00 49 1010.0
20260504003921 8 287 1.6 4.8 0.00 0.00 0.00 48 1010.0
20260504003416 8 284 1.6 6.4 0.00 0.00 0.00 48 1009.9
20260504002909 9 298 3.2 6.4 0.00 0.00 0.00 47 1009.9
20260504002403 9 273 3.2 9.7 0.00 0.00 0.00 49 1009.8
20260504001858 9 281 3.2 11.3 0.00 0.00 0.00 46 1009.8
20260504001352 10 264 4.8 11.3 0.00 0.00 0.00 44 1009.7
20260504000845 10 266 4.8 11.3 0.00 0.00 0.00 44 1009.7
20260504000340 10 305 4.8 14.5 0.00 0.00 0.00 43 1009.5
20260503235834 11 300 6.4 14.5 0.00 0.00 0.00 43 1009.4
20260503235328 11 307 6.4 16.1 0.00 0.00 0.00 42 1009.3
20260503234822 11 281 8.0 22.5 0.00 0.00 0.00 38 1009.3
20260503234315 11 273 8.0 25.7 0.00 0.00 0.00 39 1009.3
20260503233809 12 258 8.0 25.7 0.00 0.00 0.00 37 1009.2
20260503233304 12 286 8.0 17.7 0.00 0.00 0.00 38 1009.1
20260503232757 12 283 8.0 20.9 0.00 0.00 0.00 36 1009.1
20260503232523 12 325 8.0 20.9 0.00 0.00 0.00 35 1009.1
20260503231746 13 277 11.3 25.7 0.00 0.00 0.00 34 1009.1
20260503231240 13 324 14.5 27.4 0.00 0.00 0.00 33 1009.1
20260503230734 13 344 12.9 27.4 0.00 0.00 0.00 33 1009.1
20260503230228 13 286 8.0 20.9 0.00 0.00 0.00 34 1009.0
20260503225722 13 331 8.0 20.9 0.00 0.00 0.00 34 1008.9
20260503225215 13 325 9.7 20.9 0.00 0.00 0.00 33 1008.9
20260503224709 13 306 8.0 19.3 0.00 0.00 0.00 34 1008.8
20260503224203 12 307 6.4 17.7 0.00 0.00 0.00 34 1008.8
20260503223657 12 263 6.4 16.1 0.00 0.00 0.00 37 1008.8
20260503223154 13 322 9.7 24.1 0.00 0.00 0.00 33 1008.7
20260503222655 13 348 12.9 30.6 0.00 0.00 0.00 33 1008.8
20260503222155 13 317 11.3 30.6 0.00 0.00 0.00 33 1008.8
20260503221656 13 300 9.7 24.1 0.00 0.00 0.00 33 1008.8
20260503221155 13 309 11.3 32.2 0.00 0.00 0.00 32 1008.8
20260503220654 14 318 9.7 32.2 0.00 0.00 0.00 31 1008.8
20260503220156 14 325 8.0 19.3 0.00 0.00 0.00 33 1008.7
20260503215655 14 262 9.7 25.7 0.00 0.00 0.00 33 1008.6
20260503215430 14 41 12.9 25.7 0.00 0.00 0.00 30 1008.7
20260503214927 14 324 11.3 25.7 0.00 0.00 0.00 33 1008.7
20260503214154 14 290 11.3 25.7 0.00 0.00 0.00 31 1008.7
20260503213654 14 328 12.9 25.7 0.00 0.00 0.00 33 1008.7
20260503213426 14 275 12.9 25.7 0.00 0.00 0.00 30 1008.7
20260503212655 14 355 14.5 32.2 0.00 0.00 0.00 32 1008.7
20260503212429 14 329 16.1 32.2 0.00 0.00 0.00 31 1008.5
20260503211657 14 313 12.9 37.0 0.00 0.00 0.00 31 1008.7
20260503211158 14 309 14.5 37.0 0.00 0.00 0.00 31 1008.7
20260503210652 14 311 16.1 35.4 0.00 0.00 0.00 31 1008.7
20260503210144 14 330 19.3 40.2 0.00 0.00 0.00 32 1008.7
20260503210139 14 296 17.7 40.2 0.00 0.00 0.00 30 1008.7
20260503205402 14 320 16.1 37.0 0.00 0.00 0.00 31 1008.7
20260503204630 14 336 16.1 37.0 0.00 0.00 0.00 32 1008.5
20260503204130 14 311 16.1 38.6 0.00 0.00 0.00 31 1008.6
20260503203901 13 355 17.7 38.6 0.00 0.00 0.00 31 1008.7
20260503203753 13 329 17.7 38.6 0.00 0.00 0.00 32 1008.7
20260503202630 13 9 17.7 45.1 0.00 0.00 0.00 31 1008.8
20260503202130 14 325 19.3 45.1 0.00 0.00 0.00 31 1008.8
20260503201631 13 279 19.3 43.5 0.00 0.00 0.00 32 1008.7
20260503201131 13 285 19.3 40.2 0.00 0.00 0.00 30 1008.9
20260503200632 13 303 20.9 41.8 0.00 0.00 0.00 31 1009.0
20260503200127 13 274 20.9 41.8 0.00 0.00 0.00 31 1009.0
20260503195626 13 5 17.7 32.2 0.00 0.00 0.00 32 1009.1
20260503195357 14 44 16.1 30.6 0.00 0.00 0.00 32 1008.9
20260503194626 13 331 16.1 33.8 0.00 0.00 0.00 32 1008.9
20260503194131 14 355 14.5 33.8 0.00 0.00 0.00 30 1008.9
20260503194126 13 294 16.1 33.8 0.00 0.00 0.00 33 1009.0
20260503193127 14 304 16.1 33.8 0.00 0.00 0.00 31 1009.1
20260503192627 13 317 14.5 33.8 0.00 0.00 0.00 33 1009.0
20260503192128 14 350 12.9 32.2 0.00 0.00 0.00 32 1009.2
20260503191621 14 312 16.1 32.2 0.00 0.00 0.00 36 1009.1
20260503191346 13 344 16.1 33.8 0.00 0.00 0.00 34 1009.1
20260503190607 13 279 17.7 41.8 0.00 0.00 0.00 38 1009.3
20260503185825 12 323 17.7 35.4 0.00 0.00 0.00 35 1009.5
20260503185049 12 302 14.5 35.4 0.00 0.00 0.00 37 1009.7
20260503184543 13 341 12.9 30.6 0.00 0.00 0.00 34 1009.5
20260503184308 13 5 16.1 41.8 0.00 0.00 0.00 35 1009.6
20260503183531 13 281 17.7 41.8 0.00 0.00 0.00 36 1009.6
20260503183025 13 314 16.1 33.8 0.00 0.00 0.00 39 1009.5
20260503182519 12 17 17.7 37.0 0.00 0.00 0.00 36 1009.6
20260503182013 12 332 19.3 37.0 0.00 0.00 0.00 35 1009.8
20260503181737 13 0 17.7 41.8 0.00 0.00 0.00 34 1009.6
20260503181001 13 310 19.3 41.8 0.00 0.00 0.00 36 1009.8
20260503180455 12 265 19.3 40.2 0.00 0.00 0.00 39 1009.6
20260503175948 13 281 17.7 38.6 0.00 0.00 0.00 38 1009.7
20260503175442 12 355 19.3 38.6 0.00 0.00 0.00 36 1009.7
20260503174936 12 327 19.3 41.8 0.00 0.00 0.00 38 1009.7
20260503174430 12 266 19.3 41.8 0.00 0.00 0.00 40 1009.7
20260503173924 12 312 16.1 35.4 0.00 0.00 0.00 36 1009.9
20260503173418 12 313 14.5 29.0 0.00 0.00 0.00 39 1009.9
20260503172913 12 319 16.1 35.4 0.00 0.00 0.00 41 1009.9
20260503172407 12 37 14.5 35.4 0.00 0.00 0.00 38 1009.9
20260503171901 12 306 14.5 33.8 0.00 0.00 0.00 41 1010.1
20260503171625 11 330 17.7 33.8 0.00 0.00 0.00 42 1010.0
20260503170849 11 5 17.7 37.0 0.00 0.00 0.00 42 1010.1
20260503170343 11 335 16.1 37.0 0.00 0.00 0.00 41 1010.2
20260503150628 8 323 9.7 20.9 0.00 0.00 0.00 47 1010.7
20260503150359 8 324 11.3 25.7 0.00 0.00 0.00 48 1010.7
20260503140128 10 324 12.9 27.4 0.00 0.00 0.00 51 1010.6
20260503131128 8 31 14.5 30.6 0.00 0.00 0.00 51 1010.4
20260503130627 7 344 17.7 30.6 0.00 0.00 0.00 58 1010.4
20260503130125 7 304 16.1 29.0 0.00 0.00 0.00 55 1010.4
20260503120111 5 344 16.1 35.4 0.00 0.00 0.00 65 1010.4
20260503110611 4 348 11.3 20.9 0.00 0.00 0.00 67 1009.9
20260503110111 4 306 11.3 20.9 0.00 0.00 0.00 67 1009.8
20260503100249 4 12 14.5 24.1 0.00 0.00 0.00 65 1009.1
20260503090411 5 338 14.5 25.7 0.00 0.00 0.00 63 1008.8
20260503081333 5 10 8.0 22.5 0.00 0.03 0.00 60 1008.8
20260503080833 5 333 9.7 22.5 0.00 0.03 0.00 59 1008.8
20260503080332 5 42 9.7 22.5 0.00 0.03 0.00 59 1008.8
20260503072603 5 344 8.0 20.9 0.00 0.03 0.00 59 1008.7
20260503071832 6 313 6.4 20.9 0.00 0.03 0.00 59 1008.7
20260503071333 6 329 6.4 16.1 0.00 0.03 0.00 59 1008.7
20260503070834 6 23 6.4 16.1 0.00 0.03 0.00 59 1008.7
20260503070328 6 29 8.0 25.7 0.00 0.03 0.00 58 1008.7
20260503060308 6 346 4.8 14.5 0.00 0.03 0.00 57 1008.9
20260503054245 6 0 6.4 20.9 0.00 0.03 0.00 55 1009.0
20260503054011 6 28 8.0 16.1 0.00 0.03 0.00 56 1009.0
20260503053233 6 23 9.7 22.5 0.00 0.03 0.00 55 1008.9
20260503052959 6 32 9.7 22.5 0.00 0.03 0.00 55 1009.0
20260503052220 7 338 9.7 20.9 0.00 0.03 0.00 54 1009.0
20260503051714 7 26 8.0 20.9 0.00 0.03 0.00 53 1009.0
20260503051209 7 355 9.7 20.9 0.00 0.03 0.00 53 1009.0
20260503050934 7 15 11.3 20.9 0.00 0.03 0.00 53 1009.0
20260503050156 7 336 11.3 25.7 0.00 0.03 0.00 53 1009.1
20260503045921 7 339 9.7 25.7 0.00 0.03 0.00 52 1009.2
20260503045144 7 348 9.7 22.5 0.00 0.03 0.00 52 1009.1
20260503044639 7 350 8.0 22.5 0.00 0.03 0.00 52 1009.2
20260503044133 7 355 6.4 17.7 0.00 0.03 0.00 52 1009.2
20260503043627 7 29 6.4 17.7 0.00 0.03 0.00 52 1009.3
20260503043121 7 25 8.0 16.1 0.00 0.03 0.00 52 1009.3
20260503042846 7 0 8.0 16.1 0.00 0.03 0.00 51 1009.4
20260503042110 7 355 9.7 19.3 0.00 0.03 0.00 51 1009.3
20260503041841 7 323 11.3 22.5 0.00 0.03 0.00 51 1009.4
20260503041109 7 26 9.7 22.5 0.00 0.03 0.00 51 1009.5
20260503040611 7 19 9.7 19.3 0.00 0.03 0.00 51 1009.4
20260503040110 7 0 11.3 20.9 0.00 0.03 0.00 51 1009.4
20260503035609 7 351 11.3 20.9 0.00 0.03 0.03 50 1009.4
20260503035109 7 346 9.7 20.9 0.00 0.03 0.03 50 1009.6
20260503034609 7 343 8.0 17.7 0.00 0.03 0.03 51 1009.7
20260503034342 7 355 8.0 17.7 0.00 0.03 0.03 50 1009.6
20260503033607 7 355 8.0 17.7 0.00 0.03 0.03 51 1009.5
20260503033107 7 346 9.7 17.7 0.00 0.03 0.03 51 1009.5
20260503032840 7 350 8.0 17.7 0.00 0.03 0.03 51 1009.5
20260503032344 7 355 8.0 16.1 0.00 0.03 0.03 51 1009.5
20260503032109 7 355 8.0 16.1 0.00 0.03 0.03 51 1009.5
20260503031108 7 346 8.0 16.1 0.00 0.03 0.03 51 1009.6
20260503030607 7 13 6.4 16.1 0.00 0.03 0.03 51 1009.5
20260503030109 7 344 6.4 14.5 0.00 0.03 0.03 52 1009.7
20260503025607 7 355 6.4 19.3 0.00 0.03 0.03 52 1009.7
20260503025107 7 26 6.4 19.3 0.00 0.03 0.03 53 1009.7
20260503024608 7 346 4.8 12.9 0.00 0.03 0.03 51 1009.7
20260503024107 7 16 4.8 12.9 0.00 0.03 0.03 51 1009.7
20260503023607 7 0 6.4 14.5 0.00 0.03 0.03 51 1009.7
20260503023338 7 5 6.4 14.5 0.00 0.03 0.03 49 1009.6
20260503022607 7 10 6.4 14.5 0.00 0.03 0.03 50 1009.8
20260503022339 8 34 8.0 20.9 0.00 0.03 0.03 49 1009.7
20260503021607 8 337 8.0 20.9 0.00 0.03 0.03 49 1009.7
20260503021108 8 355 8.0 12.9 0.00 0.03 0.03 48 1009.6
20260503020838 8 30 6.4 12.9 0.00 0.03 0.03 48 1009.7
20260503020107 8 348 6.4 16.1 0.00 0.03 0.03 48 1009.7
20260503015608 8 17 8.0 16.1 0.00 0.03 0.03 47 1009.7
20260503015107 8 25 6.4 16.1 0.00 0.03 0.03 49 1009.8
20260503014608 8 0 4.8 11.3 0.00 0.03 0.03 49 1009.9
20260503014338 8 355 4.8 11.3 0.00 0.03 0.03 49 1009.9
20260503013608 8 346 4.8 8.0 0.00 0.03 0.03 48 1009.8
20260503013102 8 19 4.8 12.9 0.00 0.03 0.03 47 1009.9
20260503012828 8 5 6.4 14.5 0.00 0.03 0.03 46 1009.9
20260503012321 8 355 6.4 14.5 0.00 0.03 0.03 46 1009.9
20260503011543 8 5 6.4 12.9 0.00 0.03 0.03 47 1009.7
20260503011308 9 19 6.4 12.9 0.00 0.03 0.03 46 1009.5
20260503010529 8 35 6.4 12.9 0.00 0.03 0.03 48 1009.7
20260503010024 8 38 6.4 12.9 0.00 0.03 0.03 47 1009.7
20260503005519 8 28 4.8 12.9 0.00 0.03 0.03 49 1009.4
20260503005514 8 22 3.2 8.0 0.00 0.03 0.03 49 1009.4